Location: Contre
(49.7477°N, 2.0963°E)
Time: 11:53:44
(UTC+00:00)

Cosmos 1461 - Pass Details

Date: 03 February 2023
Orbit: 492 x 644 km, 65.0° (Epoch: 21 March)

Event Time Altitude Azimuth Distance (km) Brightness Sun altitude
Rises 17:38:28 0° 184° (S) 2,736 6.6 -8.2°
Reaches altitude 10° 17:40:53 10° 171° (S) 1,874 5.6 -8.6°
Maximum altitude 17:44:23 25° 115° (ESE) 1,194 4.1 -9.2°
Enters shadow 17:47:33 12° 63° (ENE) 1,810 4.8 -9.7°
